Evans Head Observation History
Time Wind Speed Temp Pressure Rel. Hum Rain
26/12:00am SSW 2-4 kts 22.8°c 1013.9 hPa 88% 0.0mm
Time Wind Speed Temp Pressure Rel. Hum Rain
25/11:30pm W 6-7 kts 22.6°c 1014.1 hPa 87% 0.0mm
25/11:00pm CALM 0 kts 23.2°c 1014.4 hPa 84% 0.0mm
25/10:30pm ESE 3-4 kts 23.4°c 1014.7 hPa 84% 0.0mm
25/10:00pm ESE 4-5 kts 23.5°c 1014.8 hPa 82% 0.0mm
25/09:30pm ESE 5-7 kts 23.5°c 1014.7 hPa 84% 0.0mm
25/09:00pm SE 4-6 kts 23.4°c 1014.7 hPa 84% 0.0mm
25/08:30pm SE 5 kts 23.3°c 1014.6 hPa 82% 0.0mm
25/08:00pm ESE 7-8 kts 23.0°c 1014.2 hPa 83% 0.0mm
25/07:30pm SE 6-8 kts 23.1°c 1014.2 hPa 81% 0.0mm
25/07:00pm ESE 6-8 kts 23.8°c 1014.1 hPa 79% 0.0mm
25/06:30pm ESE 7-8 kts 24.0°c 1014.0 hPa 77% 0.0mm
25/06:00pm ESE 7-9 kts 24.4°c 1013.8 hPa 76% 0.0mm
25/05:30pm SE 7-9 kts 24.9°c 1013.9 hPa 74% 0.0mm
25/05:00pm ESE 7-10 kts 25.2°c 1014.0 hPa 74% 0.0mm
25/04:30pm SE 9-11 kts 25.4°c 1014.0 hPa 71% 0.0mm
25/04:00pm ESE 10-12 kts 25.4°c 1014.2 hPa 70% 0.0mm
25/03:30pm ESE 10-13 kts 25.6°c 1014.4 hPa 70% 0.0mm
25/03:00pm E 11-14 kts 26.3°c 1014.7 hPa 68% 0.0mm
25/02:30pm ESE 10-13 kts 26.6°c 1015.1 hPa 69% 0.0mm
25/02:00pm ESE 10-13 kts 26.3°c 1015.5 hPa 71% 0.0mm
25/01:30pm ESE 10-14 kts 26.3°c 1015.6 hPa 69% 0.0mm
25/01:00pm ESE 10-13 kts 26.0°c 1015.8 hPa 70% 0.0mm
25/12:30pm ESE 10-14 kts 26.9°c 1016.0 hPa 71% 0.0mm
25/12:00pm ESE 10-13 kts 25.8°c 1016.3 hPa 74% 0.0mm
25/11:30am ESE 4-6 kts 25.4°c 1016.7 hPa 78% 0.0mm
25/11:00am NE 7-9 kts 24.3°c 1016.9 hPa 80% 0.0mm
25/10:30am SE 9-11 kts 25.0°c 1016.9 hPa 76% 0.0mm
25/10:00am ESE 7-10 kts 25.5°c 1016.9 hPa 82% 0.0mm
25/09:30am S 6-9 kts 24.5°c 1016.9 hPa 94% 0.0mm
25/09:00am WSW 6-8 kts 22.1°c 1016.8 hPa 96% 6.0mm
25/08:30am WSW 5-7 kts 21.2°c 1016.6 hPa 97% 6.0mm
25/08:00am WSW 6-8 kts 20.6°c 1016.5 hPa 97% 6.0mm
25/07:30am SSE 4-6 kts 20.5°c 1016.6 hPa 97% 5.4mm
25/07:00am W 7-9 kts 20.0°c 1016.2 hPa 97% 5.0mm
25/06:30am WSW 7-9 kts 19.9°c 1016.0 hPa 96% 5.0mm
25/06:00am SW 5-7 kts 19.9°c 1016.0 hPa 96% 5.0mm
25/05:30am WSW 7-9 kts 20.0°c 1015.9 hPa 96% 5.0mm
25/05:00am WSW 7-9 kts 20.2°c 1015.8 hPa 96% 5.0mm
25/04:30am W 7-8 kts 20.2°c 1015.9 hPa 96% 5.0mm
25/04:00am WNW 5-7 kts 20.2°c 1016.0 hPa 95% 5.0mm
25/03:30am NNW 5-7 kts 20.3°c 1016.3 hPa 96% 5.0mm
25/03:00am NW 5-7 kts 20.5°c 1016.6 hPa 96% 5.0mm
25/02:30am WSW 7-8 kts 20.4°c 1016.7 hPa 96% 5.0mm
25/02:00am WSW 7-8 kts 20.3°c 1016.9 hPa 96% 5.0mm
25/01:30am WSW 7-8 kts 20.3°c 1017.3 hPa 95% 5.0mm
25/01:00am WSW 5-8 kts 20.3°c 1017.5 hPa 94% 5.0mm
25/12:30am WSW 7-10 kts 20.4°c 1017.7 hPa 94% 3.6mm
25/12:00am W 6-10 kts 20.3°c 1018.0 hPa 95% 3.6mm
Time Wind Speed Temp Pressure Rel. Hum Rain
24/11:30pm SW 5-8 kts 20.4°c 1018.0 hPa 95% 3.6mm
24/11:00pm SW 7-10 kts 20.4°c 1018.3 hPa 94% 3.6mm
24/10:30pm WSW 6-8 kts 20.5°c 1018.4 hPa 95% 3.6mm
24/10:00pm WSW 8-9 kts 20.5°c 1018.4 hPa 95% 3.6mm
24/09:30pm WSW 6-7 kts 20.5°c 1018.3 hPa 94% 3.6mm
24/09:00pm SW 6-8 kts 20.7°c 1018.3 hPa 94% 3.6mm
24/08:30pm SW 6-7 kts 20.8°c 1018.2 hPa 94% 3.6mm
24/08:00pm SW 6-9 kts 20.9°c 1017.9 hPa 93% 3.6mm
24/07:30pm SW 6-8 kts 21.1°c 1017.7 hPa 92% 3.6mm
24/07:00pm SSW 7-10 kts 21.3°c 1017.6 hPa 91% 3.6mm
24/06:30pm SSW 7-10 kts 21.4°c 1017.6 hPa 89% 3.6mm
24/06:00pm SSW 7-11 kts 21.5°c 1017.4 hPa 90% 3.6mm
24/05:30pm S 10-14 kts 21.8°c 1017.4 hPa 91% 3.6mm
24/05:00pm S 10-15 kts 21.9°c 1017.3 hPa 89% 3.4mm
24/04:30pm SSW 10-14 kts 21.5°c 1017.3 hPa 91% 3.4mm
24/04:00pm SSW 7-9 kts 21.6°c 1017.3 hPa 92% 3.4mm
24/03:30pm S 8-11 kts 21.4°c 1017.3 hPa 88% 3.4mm
24/03:00pm S 11-13 kts 22.5°c 1017.6 hPa 85% 3.2mm
24/02:30pm S 10-13 kts 22.4°c 1018.0 hPa 91% 3.2mm
24/02:00pm S 8-11 kts 21.9°c 1018.4 hPa 91% 3.2mm
24/01:30pm SSE 9-12 kts 21.7°c 1018.6 hPa 93% 3.2mm
24/01:00pm SSE 8-12 kts 21.8°c 1018.7 hPa 92% 3.0mm
24/12:30pm SSW 5-9 kts 22.2°c 1018.7 hPa 93% 3.0mm
24/12:00pm ESE 4-8 kts 22.6°c 1019.2 hPa 93% 3.0mm
24/11:30am N 1-4 kts 22.6°c 1019.3 hPa 91% 2.6mm
24/11:00am E 6-8 kts 21.5°c 1019.4 hPa 92% 2.6mm
24/10:30am SE 9-13 kts 22.4°c 1019.5 hPa 96% 2.6mm
24/10:00am SSE 8-10 kts 21.8°c 1019.5 hPa 94% 1.0mm
24/09:30am S 7-9 kts 21.7°c 1019.5 hPa 96% 0.0mm
24/09:00am SSW 6-8 kts 21.5°c 1019.2 hPa 97% 17.0mm
24/08:30am SSW 5-6 kts 21.2°c 1018.9 hPa 97% 17.0mm
24/08:00am SSW 6-7 kts 20.7°c 1018.8 hPa 97% 17.0mm
24/07:30am SSW 5-7 kts 20.2°c 1018.7 hPa 97% 17.0mm
24/07:00am WSW 5-7 kts 20.0°c 1018.2 hPa 97% 17.0mm
24/06:30am W 7-10 kts 20.0°c 1018.2 hPa 97% 16.8mm
24/06:00am SW 6-7 kts 19.9°c 1018.3 hPa 97% 16.0mm
24/05:30am WSW 6-9 kts 19.8°c 1017.9 hPa 96% 15.2mm
24/05:00am SSW 5-7 kts 19.9°c 1017.9 hPa 96% 14.8mm
24/04:30am WSW 6-8 kts 19.8°c 1017.9 hPa 96% 14.0mm
24/04:00am SSW 4-5 kts 20.1°c 1018.0 hPa 96% 14.0mm
24/03:30am WSW 5-7 kts 20.1°c 1018.2 hPa 96% 13.8mm
24/03:00am W 5-7 kts 20.2°c 1018.2 hPa 96% 13.4mm
24/02:30am WNW 5-7 kts 20.4°c 1018.4 hPa 96% 13.4mm
24/02:00am NW 5-7 kts 20.6°c 1018.8 hPa 97% 13.0mm
24/01:30am NNE 4-6 kts 20.6°c 1019.0 hPa 97% 11.4mm
24/01:00am NNW 5-6 kts 20.4°c 1019.4 hPa 97% 9.2mm
24/12:30am WSW 5-8 kts 19.7°c 1019.6 hPa 97% 9.0mm
24/12:00am WSW 7-9 kts 19.6°c 1019.8 hPa 96% 9.0mm